Regional Weather Roundup
Issued by NWS

Home | Current Version | Previous Version | Graphics & Text | Print | Product List | Glossary On
Versions: 1 2 3 4 5 6 7 8 9 10 11 12 13 14 15 16 17 18 19 20 21 22 23 24 25 26 27 28 29 30 31 32 33 34 35 36 37 38 39 40 41 42 43 44 45 46 47 48 49 50
143
ASUS43 KMPX 271010
RWRMN
WEATHER ROUNDUP FOR MINNESOTA
NATIONAL WEATHER SERVICE TWIN CITIES/CHANHASSEN MN
500 AM CDT TUE SEP 27 2016


NOTE: "FAIR" INDICATES FEW OR NO CLOUDS BELOW 12,000 FEET WITH NO
SIGNIFICANT WEATHER AND/OR OBSTRUCTIONS TO VISIBILITY. N/A MEANS
CURRENT SKY AND/OR WEATHER CONDITIONS ARE NOT AVAILABLE.

MNZ060>063-068>070-271100-
   Twin Cities Metro

CITY           SKY/WX    TMP DP  RH WIND       PRES   REMARKS
TWIN CITIES    CLEAR     51  37  58 W12       29.84S
ST PAUL        CLEAR     50  38  63 W12       29.83S
CRYSTAL        CLEAR     50  37  61 W10       29.83S
BLAINE         CLEAR     52  39  62 W14       29.82S
LAKEVILLE      CLEAR     46  37  71 W9        29.85S
EDEN PRAIRIE   CLEAR     51  38  60 W12       29.84F
LAKEVILLE      CLEAR     46  37  71 W9        29.85S
SOUTH ST PAUL  CLEAR     51  37  59 W13       29.83R
LAKE ELMO      FAIR      50  41  71 W13       29.82S
$$
MNZ001>005-007-008-013>017-022>024-027-028-271100-
   Northwest Minnesota

CITY           SKY/WX    TMP DP  RH WIND       PRES   REMARKS
BEMIDJI        CLOUDY    47  41  80 NW15      29.81S
HALLOCK        CLEAR     46  43  87 NW13      29.88S
ROSEAU         CLOUDY    48  43  81 W10G17    29.82R
WARROAD        RAIN      50  46  87 VRB8      29.80S
THIEF RVR FALL CLEAR     45  41  86 NW12      29.88R
CROOKSTON      CLEAR     43  39  87 NW9       29.90S
FOSSTON        CLEAR     43  39  87 W9        29.87S
DETROIT LAKES  CLEAR     46  41  81 NW15      29.90S
MOORHEAD       CLEAR     41  36  81 W8        29.93S
PARK RAPIDS    PTCLDY    45  39  79 NW12      29.84S
MAHNOMEN       FAIR      43  40  88 NW12      29.88S
$$
MNZ006-009>011-018-025>026-271100-
   North Central Minnesota

CITY           SKY/WX    TMP DP  RH WIND       PRES   REMARKS
BAUDETTE       LGT RAIN  49  45  86 NW24G32   29.76R
FLAG ISLAND    CLOUDY    52  43  71 NW30      29.76S
INTL FALLS     CLOUDY    48  46  93 NW12      29.70R
WASKISH        CLOUDY    50  45  81 NW16G24   29.78S
BIG FORK       DRIZZLE   48  45  87 W9G17     29.74R
GRAND RAPIDS   LGT RAIN  48  43  82 NW16G22   29.75F
CRANE LAKE     CLOUDY    46  46 100 NW7G16    29.67S
ORR            CLOUDY    48  45  87 NW12G21   29.66S
COOK           CLOUDY    48  46  93 W13G18    29.68S
WALKER         CLOUDY    47  41  80 NW10      29.81R
$$
MNZ012-019>021-037-271100-
   Northeast Minnesota

CITY           SKY/WX    TMP DP  RH WIND       PRES   REMARKS
DULUTH         CLOUDY    50  45  83 NW17G30   29.67S
ELY            CLOUDY    46  45  93 NW9G22    29.62S
HIBBING        LGT RAIN  47  44  90 NW20G25   29.69F
EVELETH        CLOUDY    49  46  90 NW12G20   29.68S
DULUTH HARBOR  CLOUDY    54  48  82 W18       29.69S
TWO HARBORS    DRIZZLE   52  46  82 NW9       29.63S
SILVER BAY     CLOUDY    48  45  87 NW8       29.59S
GRAND MARAIS     N/A     51  45  79 NW8       29.52R
G MARAIS ARPRT DRIZZLE   45  39  81 W8G16     29.52S
$$
MNZ029>031-032-039>041-046>048-054>057-064-271100-
   West Central Minnesota

CITY           SKY/WX    TMP DP  RH WIND       PRES   REMARKS
FERGUS FALLS   CLEAR     36  36 100 W3        29.96R
WHEATON        CLEAR     45  39  81 NW6       29.97R
MORRIS         CLEAR     39  36  87 NW8       29.93R
ALEXANDRIA     CLEAR     44  39  82 W13       29.91S
ELBOW LAKE     FAIR      38  36  91 NW6       29.93S
WADENA         CLEAR     46  39  76 NW13G18   29.87R
GLENWOOD       CLEAR     39  36  87 W9        29.91R
BENSON         CLEAR     37  34  87 CALM      29.93S
ORTONVILLE     CLEAR     46  36  66 CALM      29.95S
MADISON          N/A     45  37  76 W7        29.95S
WILLMAR        FAIR      43  37  81 W8        29.93S
$$
MNZ033>034-036-042>043-049>051-058-059-271100-
   Central Minnesota

CITY           SKY/WX    TMP DP  RH WIND       PRES   REMARKS
ST CLOUD       CLEAR     48  41  76 W12       29.84S
SAUK CENTRE    FAIR      42  38  86 W10       29.88S
PAYNESVILLE    CLEAR     40  37  90 W6        29.90S
AITKIN         CLOUDY    52  39  62 W7        29.77S
PINE RIVER     CLOUDY    46  41  81 W8        29.85R
BRAINERD       CLOUDY    48  42  80 W16G24    29.82S
STAPLES        CLEAR     45  39  81 W12       29.85S
LONG PRAIRIE   FAIR      45  37  76 W8        29.87S
LITTLE FALLS   CLEAR     46  37  71 W9        29.85R
LITCHFIELD     CLEAR     48  43  81 W9        29.90R
BUFFALO        CLEAR     49  39  68 W12G18    29.87R
MAPLE LAKE     CLEAR     49  40  73 W7        29.87S
HUTCHINSON     CLEAR     42  38  86 W7        29.90S
$$
MNZ037-044-045-052-053-271100-
   East Central Minnesota

CITY           SKY/WX    TMP DP  RH WIND       PRES   REMARKS
PRINCETON      CLEAR     48  41  76 W10       29.83S
MORA           CLEAR     45  39  81 W12       29.81S
CAMBRIDGE      CLEAR     50  39  66 W9        29.79F
MOOSE LAKE     CLOUDY    50  41  71 NW9G18    29.72S
HINCKLEY       CLOUDY    52  43  71 W13G21    29.77R
CLOQUET        CLOUDY    50  43  76 W15G21    29.70S
MCGREGOR       MOCLDY    50  43  76 NW15      29.76S
$$
MNZ071>073-080-081-089-090-097-098-271100-
   Southwest Minnesota

CITY           SKY/WX    TMP DP  RH WIND       PRES   REMARKS
MONTEVIDEO     CLEAR     45  36  70 NW6       29.96R
GRANITE FALLS  CLEAR     43  39  83 W8        29.96R
CANBY          CLEAR     47  38  70 NW3       29.97S
MARSHALL       CLEAR     45  37  73 W9        29.96S
REDWOOD FALLS  CLEAR     44  37  76 W8        29.93S
OLIVIA         CLEAR     43  36  75 W5        29.92S
PIPESTONE      CLEAR     39  36  87 W6        29.99S
WINDOM         CLEAR     43  37  81 W7        29.95S
WORTHINGTON    CLEAR     43  36  76 W9        29.98S
JACKSON        PTCLDY    43  34  70 W6        29.96S
TRACY          CLEAR     48  38  70 W6        29.96S
SLAYTON        CLEAR     43  36  75 W6        29.98S
$$
MNZ065>067-074>077-082>085-091>093-271100-
   South Central Minnesota

CITY           SKY/WX    TMP DP  RH WIND       PRES   REMARKS
MANKATO        CLEAR     48  37  65 W12       29.91S
NEW ULM        CLEAR     43  37  81 W8        29.92S
ST JAMES       CLEAR     46  37  71 W9        29.94S
FAIRMONT       CLEAR     48  37  65 W9        29.94S
GLENCOE        PTCLDY    46  40  81 W7        29.89S
FARIBAULT      CLEAR     48  39  71 W8        29.88S
OWATONNA       CLEAR     45  37  76 W7        29.89S
WASECA         CLEAR     41  37  87 SW5       29.91S
ALBERT LEA     CLEAR     48  37  66 W7        29.90S
$$
MNZ078>079-086>088-094>096-271100-
   Southeast Minnesota

CITY           SKY/WX    TMP DP  RH WIND       PRES   REMARKS
ROCHESTER      CLEAR     46  38  73 W12       29.86S
RED WING       CLEAR     50  37  62 NW7       29.81S
DODGE CENTER   CLEAR     41  37  87 W8        29.87S
WINONA         CLEAR     54  37  54 W13G22    29.81S
AUSTIN           N/A     46  37  71 W8        29.89R
PRESTON        CLEAR     45  35  68 W14       29.86F
$$
ABBREVIATIONS USED IN REMARKS
   TC - TEMPERATURES IN CELSIUS
  WCI - WIND CHILL INDEX
   HX - HEAT INDEX
  VSB - VISIBILITY
$$




USA.gov is the U.S. government's official web portal to all federal, state and local government web resources and services.